EZY898 EGHQ-EGKK

Flight info

Callsign EZY898
Flight time 0h 35m
Altitude 29000
Route DAWLY DCT ELRIP DCT OTMET
Aircraft A320/M-SDE3FGHIRWY/LB1

Departure

Time 2026-05-09 13:35
Airport Cornwall Airport Newquay (EGHQ)

Arrival

Time 2026-05-09 14:10
Airport London Gatwick Airport (EGKK)
Time Latitude Longitude Altitude Speed Heading
2026-05-09 13:12 50.44655 -5.00374 336 ft 0 kts 77°
2026-05-09 13:26 50.44655 -5.00375 336 ft 1 kts 78°
2026-05-09 13:26 50.44648 -5.00410 330 ft 4 kts 62°
2026-05-09 13:27 50.44632 -5.00442 310 ft 4 kts 33°
2026-05-09 13:27 50.44616 -5.00456 333 ft 1 kts 21°
2026-05-09 13:27 50.44613 -5.00457 331 ft 3 kts 21°
2026-05-09 13:28 50.44613 -5.00458 331 ft 0 kts 21°
2026-05-09 13:29 50.44617 -5.00457 333 ft 2 kts
2026-05-09 13:29 50.44657 -5.00529 329 ft 13 kts 300°
2026-05-09 13:30 50.44707 -5.00666 323 ft 15 kts 300°
2026-05-09 13:30 50.44762 -5.00816 322 ft 15 kts 301°
2026-05-09 13:30 50.44806 -5.00968 318 ft 16 kts 276°
2026-05-09 13:30 50.44778 -5.01104 315 ft 0 kts 226°
2026-05-09 13:33 50.44751 -5.01135 314 ft 10 kts 212°
2026-05-09 13:34 50.44695 -5.01170 315 ft 6 kts 165°
2026-05-09 13:34 50.44679 -5.01134 315 ft 3 kts 120°
2026-05-09 13:34 50.44677 -5.01129 316 ft 0 kts 118°
2026-05-09 13:34 50.44661 -5.01085 317 ft 25 kts 120°
2026-05-09 13:35 50.44389 -5.00355 334 ft 125 kts 121°
2026-05-09 13:35 50.43835 -4.98886 718 ft 173 kts 116°
2026-05-09 13:35 50.43202 -4.97225 1814 ft 182 kts 117°
2026-05-09 13:35 50.42598 -4.95524 2879 ft 175 kts 107°
2026-05-09 13:36 50.42493 -4.93576 3555 ft 192 kts 82°
2026-05-09 13:36 50.42781 -4.91423 4130 ft 216 kts 76°
2026-05-09 13:36 50.43176 -4.89006 4737 ft 241 kts 76°
2026-05-09 13:36 50.43586 -4.86379 5634 ft 253 kts 77°
2026-05-09 13:37 50.43969 -4.83659 6724 ft 257 kts 78°
2026-05-09 13:37 50.44321 -4.80876 7760 ft 262 kts 79°
2026-05-09 13:37 50.44646 -4.78038 8791 ft 267 kts 81°
2026-05-09 13:37 50.44959 -4.75137 9848 ft 271 kts 82°
2026-05-09 13:38 50.45270 -4.72141 10540 ft 289 kts 82°
2026-05-09 13:38 50.45598 -4.68897 11030 ft 312 kts 82°
2026-05-09 13:38 50.45944 -4.65478 11812 ft 322 kts 82°
2026-05-09 13:38 50.46303 -4.61953 12698 ft 328 kts 83°
2026-05-09 13:39 50.46668 -4.58396 13598 ft 333 kts 83°
2026-05-09 13:39 50.47036 -4.54784 14409 ft 338 kts 83°
2026-05-09 13:39 50.47407 -4.51104 15160 ft 344 kts 83°
2026-05-09 13:39 50.47773 -4.47426 15913 ft 349 kts 84°
2026-05-09 13:40 50.48149 -4.43633 16665 ft 354 kts 83°
2026-05-09 13:40 50.48530 -4.39785 17396 ft 360 kts 84°
2026-05-09 13:40 50.48918 -4.35879 18133 ft 365 kts 84°
2026-05-09 13:40 50.49312 -4.31905 18783 ft 370 kts 83°
2026-05-09 13:41 50.49709 -4.27890 19464 ft 374 kts 84°
2026-05-09 13:41 50.50108 -4.23832 20155 ft 377 kts 85°
2026-05-09 13:41 50.50508 -4.19740 20845 ft 380 kts 84°
2026-05-09 13:41 50.50908 -4.15616 21538 ft 383 kts 83°
2026-05-09 13:42 50.51310 -4.11448 22211 ft 387 kts 83°
2026-05-09 13:42 50.51709 -4.07302 22856 ft 391 kts 83°
2026-05-09 13:42 50.52117 -4.03063 23536 ft 394 kts 84°
2026-05-09 13:42 50.52529 -3.98778 24076 ft 398 kts 84°
2026-05-09 13:43 50.52946 -3.94464 24605 ft 401 kts 83°
2026-05-09 13:43 50.53366 -3.90104 25102 ft 405 kts 83°
2026-05-09 13:43 50.53786 -3.85707 25590 ft 408 kts 84°
2026-05-09 13:43 50.54204 -3.81278 26066 ft 412 kts 85°
2026-05-09 13:44 50.54621 -3.76802 26539 ft 415 kts 83°
2026-05-09 13:44 50.55040 -3.72278 26992 ft 419 kts 84°
2026-05-09 13:44 50.55464 -3.67721 27408 ft 423 kts 84°
2026-05-09 13:44 50.55893 -3.63114 27833 ft 427 kts 84°
2026-05-09 13:45 50.56323 -3.58474 28269 ft 430 kts 84°
2026-05-09 13:45 50.56750 -3.53845 28698 ft 434 kts 84°
2026-05-09 13:45 50.57182 -3.49137 29129 ft 436 kts 84°
2026-05-09 13:45 50.57627 -3.44391 29545 ft 440 kts 83°
2026-05-09 13:46 50.58132 -3.39622 29941 ft 443 kts 82°
2026-05-09 13:46 50.58693 -3.34840 30070 ft 439 kts 81°
2026-05-09 13:46 50.59268 -3.30208 30085 ft 424 kts 81°
2026-05-09 13:46 50.59822 -3.25740 30084 ft 419 kts 82°
2026-05-09 13:47 50.60900 -3.16713 30086 ft 420 kts 82°
2026-05-09 13:47 50.61941 -3.07664 30090 ft 419 kts 82°
2026-05-09 13:48 50.62960 -2.98625 30086 ft 419 kts 82°
2026-05-09 13:48 50.63981 -2.89591 30084 ft 419 kts 82°
2026-05-09 13:49 50.64991 -2.80553 30077 ft 418 kts 83°
2026-05-09 13:49 50.65995 -2.71497 30085 ft 426 kts 83°
2026-05-09 13:50 50.66506 -2.66883 30094 ft 440 kts 83°
2026-05-09 13:50 50.67037 -2.62065 30092 ft 448 kts 83°
2026-05-09 13:50 50.68038 -2.52323 30089 ft 449 kts 89°
2026-05-09 13:51 50.67838 -2.42543 30092 ft 446 kts 97°
2026-05-09 13:51 50.67427 -2.32773 30074 ft 446 kts 97°
2026-05-09 13:52 50.67005 -2.22980 30085 ft 448 kts 97°
2026-05-09 13:52 50.66645 -2.14827 30086 ft 448 kts 97°
2026-05-09 13:53 50.66134 -2.03428 30088 ft 449 kts 96°
2026-05-09 13:53 50.66216 -1.93544 30087 ft 451 kts 92°
2026-05-09 13:54 50.66314 -1.85344 29767 ft 448 kts 92°
2026-05-09 13:54 50.66370 -1.80426 28667 ft 450 kts 92°
2026-05-09 13:54 50.66422 -1.75486 27889 ft 447 kts 92°
2026-05-09 13:55 50.66474 -1.70605 27190 ft 442 kts 92°
2026-05-09 13:55 50.66523 -1.65799 26528 ft 437 kts 92°
2026-05-09 13:55 50.66567 -1.61035 25882 ft 432 kts 91°
2026-05-09 13:55 50.66608 -1.56347 25054 ft 422 kts 91°
2026-05-09 13:56 50.66628 -1.51745 23959 ft 416 kts 92°
2026-05-09 13:56 50.66597 -1.47232 22804 ft 409 kts 93°
2026-05-09 13:56 50.66530 -1.42785 21700 ft 402 kts 94°
2026-05-09 13:56 50.66449 -1.38412 20648 ft 395 kts 94°
2026-05-09 13:57 50.66577 -1.34171 19647 ft 391 kts 82°
2026-05-09 13:57 50.67274 -1.30054 18677 ft 386 kts 70°
2026-05-09 13:57 50.68266 -1.26174 18026 ft 372 kts 69°
2026-05-09 13:57 50.69228 -1.22440 17668 ft 363 kts 69°
2026-05-09 13:58 50.70174 -1.18772 17264 ft 359 kts 69°
2026-05-09 13:58 50.71107 -1.15136 16868 ft 357 kts 69°
2026-05-09 13:58 50.72032 -1.11510 16470 ft 354 kts 69°
2026-05-09 13:58 50.72947 -1.07910 16072 ft 352 kts 69°
2026-05-09 13:59 50.73853 -1.04335 15689 ft 350 kts 69°
2026-05-09 13:59 50.74754 -1.00777 15299 ft 347 kts 69°
2026-05-09 13:59 50.75650 -0.97237 14916 ft 346 kts 69°
2026-05-09 13:59 50.76528 -0.93758 14537 ft 343 kts 69°
2026-05-09 14:00 50.77405 -0.90265 14168 ft 342 kts 69°
2026-05-09 14:00 50.78000 -0.87904 13910 ft 341 kts 69°
2026-05-09 14:00 50.79154 -0.83310 13371 ft 335 kts 69°
2026-05-09 14:00 50.79997 -0.79978 12992 ft 317 kts 66°
2026-05-09 14:01 50.81171 -0.77126 12483 ft 305 kts 46°
2026-05-09 14:01 50.82802 -0.75062 11846 ft 298 kts 33°
2026-05-09 14:01 50.84526 -0.73268 11183 ft 294 kts 33°
2026-05-09 14:01 50.86226 -0.71505 10531 ft 289 kts 33°
2026-05-09 14:02 50.87877 -0.69795 9902 ft 285 kts 34°
2026-05-09 14:02 50.89524 -0.68087 9162 ft 281 kts 34°
2026-05-09 14:02 50.91149 -0.66401 8432 ft 277 kts 35°
2026-05-09 14:02 50.92752 -0.64733 7735 ft 273 kts 35°
2026-05-09 14:03 50.94332 -0.63086 7038 ft 269 kts 36°
2026-05-09 14:03 50.95887 -0.61464 6332 ft 267 kts 34°
2026-05-09 14:03 50.97426 -0.59854 5622 ft 261 kts 36°
2026-05-09 14:03 50.98933 -0.58281 4904 ft 257 kts 35°
2026-05-09 14:04 51.00407 -0.56742 4099 ft 256 kts 35°
2026-05-09 14:04 51.01879 -0.55200 3608 ft 250 kts 36°
2026-05-09 14:04 51.03258 -0.53764 3536 ft 224 kts 35°
2026-05-09 14:04 51.04487 -0.52483 3478 ft 201 kts 37°
2026-05-09 14:05 51.05635 -0.51280 3418 ft 194 kts 37°
2026-05-09 14:05 51.06729 -0.50127 3342 ft 194 kts 36°
2026-05-09 14:05 51.07874 -0.48917 3249 ft 193 kts 36°
2026-05-09 14:05 51.08999 -0.47726 3165 ft 194 kts 35°
2026-05-09 14:06 51.10122 -0.46534 3083 ft 193 kts 39°
2026-05-09 14:06 51.11019 -0.44996 3015 ft 189 kts 62°
2026-05-09 14:06 51.11476 -0.43041 2952 ft 190 kts 78°
2026-05-09 14:06 51.11759 -0.41001 2751 ft 185 kts 78°
2026-05-09 14:07 51.12028 -0.39062 2525 ft 173 kts 78°
2026-05-09 14:07 51.12278 -0.37264 2311 ft 164 kts 77°
2026-05-09 14:07 51.12521 -0.35529 2092 ft 157 kts 78°
2026-05-09 14:07 51.12757 -0.33836 1916 ft 153 kts 78°
2026-05-09 14:08 51.12980 -0.32240 1711 ft 139 kts 77°
2026-05-09 14:08 51.13180 -0.30802 1506 ft 129 kts 77°
2026-05-09 14:08 51.13372 -0.29428 1335 ft 124 kts 77°
2026-05-09 14:08 51.13558 -0.28089 1168 ft 123 kts 77°
2026-05-09 14:09 51.13737 -0.26804 1007 ft 122 kts 74°
2026-05-09 14:09 51.13920 -0.25471 846 ft 122 kts 73°
2026-05-09 14:09 51.14105 -0.24152 718 ft 122 kts 77°
2026-05-09 14:09 51.14290 -0.22823 530 ft 124 kts 74°
2026-05-09 14:10 51.14649 -0.20224 217 ft 119 kts 74°
2026-05-09 14:10 51.14805 -0.19121 207 ft 80 kts 79°
2026-05-09 14:10 51.14933 -0.18526 209 ft 45 kts 50°
2026-05-09 14:11 51.15054 -0.18291 211 ft 11 kts 51°
2026-05-09 14:11 51.15070 -0.18258 207 ft 3 kts 51°
2026-05-09 14:11 51.15089 -0.18225 203 ft 5 kts 44°
2026-05-09 14:11 51.15143 -0.18180 207 ft 10 kts
2026-05-09 14:12 51.15168 -0.18194 209 ft 12 kts 339°
2026-05-09 14:12 51.15287 -0.18240 204 ft 20 kts 348°
2026-05-09 14:12 51.15412 -0.18284 207 ft 18 kts 348°
2026-05-09 14:12 51.15535 -0.18325 212 ft 19 kts 348°
2026-05-09 14:13 51.15637 -0.18336 208 ft 13 kts 34°
2026-05-09 14:14 51.15794 -0.17262 212 ft 12 kts 78°
2026-05-09 14:15 51.15840 -0.17206 204 ft 10 kts 348°
2026-05-09 14:15 51.15889 -0.17224 214 ft 0 kts 347°